Flag for Germany Weather past 2 weeks in Papenburg, Lower Saxony, Germany

Now
56 °F

Clear.


Feels Like: 56 °F
Forecast: 58 / 74 °F
Wind: 2 mph from Northeast

Location: Emden-Koenigspolder

Current Time: Sep 16, 2014 at 5:36:29 AM

Latest Report: Sep 16, 2014 at 4:00 AM


Visibility: 0 mi

Pressure: 30.04 "Hg

Humidity: 98%

Dew point: 55 °F

Location of PapenburgLocation

Historic Weather in Papenburg — Graph

°F

Papenburg temperature yesterday

Maximum temperature yesterday: 67 °F (at 3:00 PM)
Minimum temperature yesterday: 53 °F (at 7:00 AM)
Average temperature yesterday: 61 °F

Past Weeks' High & Low Weather Summary

 TemperatureHumidityPressure
High75 °F (Sep 5, 7:00 PM)100% (Sep 6, 9:00 AM)30.31 "Hg (Sep 6, 9:00 AM)
Low48 °F (Sep 3, 7:00 AM)58% (Sep 3, 2:00 PM)29.87 "Hg (Sep 6, 4:00 PM)
Average61 °F86%30.10 "Hg
* Reported Sep 1 4:00 AM — Sep 16 4:00 AM, Papenburg, Weather by CustomWeather, © 2014

Note: Actual official high and low records may vary slightly from our data, if they occured in-between our weather recording intervals... More about our weather records

Advertising

Papenburg weather history for previous 24 hours

 ConditionsComfort  
Time TempWeatherWind HumidityBarometerVisibility
4:00 AM
Sep 16
56 °FClear.2 mph98%30.04 "Hg0 mi
3:00 AM58 °FOvercast.1 mph98%30.04 "Hg0 mi
2:00 AM58 °FFog.2 mph96%30.05 "Hg1 mi
1:00 AM61 °FFog.2 mph95%30.05 "Hg2 mi
12:00 AM63 °FFog.3 mph93%30.05 "Hg2 mi
11:00 PM
Sep 15
63 °FFog.2 mph93%30.05 "Hg2 mi
10:00 PM63 °FFog.2 mph94%30.05 "Hg2 mi
9:00 PM63 °FFog.2 mph94%30.05 "Hg2 mi
8:00 PM65 °FFog.2 mph90%30.04 "Hg2 mi
7:00 PM66 °FFog.2 mph88%30.04 "Hg3 mi
6:00 PM66 °FFog.3 mph88%30.04 "Hg3 mi
5:00 PM66 °FFog.5 mph89%30.05 "Hg3 mi
4:00 PM67 °FFog.5 mph89%30.06 "Hg3 mi
3:00 PM67 °FFog.3 mph88%30.07 "Hg3 mi
2:00 PM66 °FFog.2 mph89%30.08 "Hg3 mi
1:00 PM66 °FFog.3 mph89%30.08 "Hg4 mi
12:00 PM65 °FFog.3 mph92%30.09 "Hg4 mi
11:00 AM63 °FFog.2 mph96%30.09 "Hg3 mi
10:00 AM61 °FLow clouds.1 mph99%30.09 "Hg2 mi
9:00 AM57 °FPartly sunny.1 mph99%30.08 "Hg0 mi
8:00 AM53 °FPartly sunny.1 mph99%30.07 "Hg0 mi
7:00 AM53 °FDuststorm.1 mph99%30.07 "Hg0 mi
6:00 AM53 °FPassing clouds.1 mph98%30.08 "Hg0 mi
5:00 AM54 °FPassing clouds.1 mph97%30.09 "Hg0 mi
Weather by CustomWeather, © 2014

See weather overviewHow to use our weather pages